Change the Weather History Date:

Monday, March 19, 2012

  Actual Average Record
Temperature  
Mean Temperature 57 °F -  
Max Temperature 78 °F 42 °F 78 °F (2012)
Min Temperature 36 °F 26 °F 8 °F (2015)
Degree Days  
Heating Degree Days 8    
Growing Degree Days 7 (Base 50)    
Moisture  
Dew Point 41 °F    
Average Humidity 95    
Maximum Humidity 100    
Minimum Humidity 29    
Precipitation  
Precipitation 0.00 in - - ()
Sea Level Pressure  
Sea Level Pressure 30.18 in    
Wind  
Wind Speed 1 mph (NE)    
Max Wind Speed 10 mph    
Max Gust Speed -    
Visibility 2 miles    
Events Fog    
Averages and records for this station are not official NWS values.
T = Trace of Precipitation, MM = Missing Value Source: NWS Daily Summary

Daily Weather History Graph

Daily Weather History Graph

Search for Another Location

Airport or City:

Trip Planner

Search our weather history database for the weather conditions in past years. The results will help you decide how hot, cold, wet, or windy it might be!

Date:

Astronomy

Mar. 19, 2012 Rise Set
Actual Time 6:54 AM EDT 7:01 PM EDT
Civil Twilight 6:26 AM EDT 7:29 PM EDT
Nautical Twilight 5:53 AM EDT 8:02 PM EDT
Astronomical Twilight 5:20 AM EDT 8:35 PM EDT
Moon 5:07 AM EDT (3/19) 4:24 PM EDT (3/19)
Length of Visible Light 13h 03m
Length of Day
12h 07m
Waning Crescent, 8% of the Moon is Illuminated
Mar 19
Waning Crescent
Mar 22
New
Mar 30
First Quarter
Apr 6
Full
Apr 13
Last Quarter

Hourly Weather History & Observations

Time (EDT) Temp. Windchill Dew Point Humidity Pressure Visibility Wind Dir Wind Speed Gust Speed Precip Events Conditions
12:55 AM 48.6 °F - 46.6 °F 93% 30.17 in 8.0 mi Calm Calm - N/A   Clear
1:18 AM 42.8 °F - 42.8 °F 100% 30.17 in 2.5 mi Calm Calm - N/A   Clear
1:19 AM 42.8 °F - 42.8 °F 100% 30.17 in 1.8 mi Calm Calm - N/A   Clear
1:20 AM 42.8 °F - 42.8 °F 100% 30.17 in 1.2 mi Calm Calm - N/A   Clear
1:21 AM 42.8 °F - 42.8 °F 100% 30.17 in 1.0 mi Calm Calm - N/A   Clear
1:23 AM 44.6 °F - 42.8 °F 93% 30.17 in 0.8 mi Calm Calm - N/A   Clear
1:28 AM 44.6 °F - 44.6 °F 100% 30.17 in 1.0 mi Calm Calm - N/A   Clear
1:30 AM 44.6 °F - 44.6 °F 100% 30.17 in 1.2 mi Calm Calm - N/A   Clear
1:31 AM 44.6 °F - 44.6 °F 100% 30.17 in 1.5 mi Calm Calm - N/A   Clear
1:32 AM 44.6 °F 43.1 °F 44.6 °F 100% 30.17 in 2.0 mi SSW 3.5 mph - N/A   Clear
1:33 AM 46.4 °F 45.2 °F 44.6 °F 93% 30.17 in 2.5 mi SSW 3.5 mph - N/A   Clear
1:34 AM 46.4 °F 45.2 °F 44.6 °F 93% 30.17 in 3.0 mi SSW 3.5 mph - N/A   Clear
1:41 AM 44.6 °F - 44.6 °F 100% 30.17 in 2.0 mi Calm Calm - N/A   Clear
1:42 AM 44.6 °F - 42.8 °F 93% 30.17 in 1.5 mi Calm Calm - N/A   Clear
1:43 AM 42.8 °F - 42.8 °F 100% 30.17 in 1.2 mi Calm Calm - N/A   Clear
1:44 AM 42.8 °F - 42.8 °F 100% 30.17 in 1.0 mi Calm Calm - N/A   Clear
1:46 AM 42.8 °F - 41.0 °F 93% 30.17 in 0.8 mi Calm Calm - N/A   Clear
1:49 AM 41.0 °F - 41.0 °F 100% 30.17 in 0.5 mi Calm Calm - N/A Fog Fog
1:50 AM 41.0 °F - 41.0 °F 100% 30.17 in 0.5 mi Calm Calm - N/A Fog Fog
1:52 AM 41.0 °F - 41.0 °F 100% 30.17 in 0.8 mi Calm Calm - N/A   Clear
1:53 AM 41.0 °F - 41.0 °F 100% 30.17 in 0.8 mi Calm Calm - N/A   Clear
1:55 AM 41.7 °F - 41.2 °F 98% 30.17 in 0.8 mi Calm Calm - N/A   Clear
1:56 AM 42.8 °F - 41.0 °F 93% 30.17 in 1.0 mi Calm Calm - N/A   Clear
1:58 AM 42.8 °F - 41.0 °F 93% 30.17 in 1.2 mi Calm Calm - N/A   Clear
1:59 AM 42.8 °F - 41.0 °F 93% 30.17 in 1.5 mi Calm Calm - N/A   Clear
2:00 AM 42.8 °F - 41.0 °F 93% 30.17 in 2.0 mi Calm Calm - N/A   Clear
2:01 AM 42.8 °F - 41.0 °F 93% 30.17 in 2.5 mi Calm Calm - N/A   Clear
2:02 AM 42.8 °F - 41.0 °F 93% 30.17 in 3.0 mi Calm Calm - N/A   Clear
2:11 AM 42.8 °F - 41.0 °F 93% 30.17 in 2.5 mi Calm Calm - N/A   Clear
2:17 AM 41.0 °F - 41.0 °F 100% 30.17 in 2.0 mi Calm Calm - N/A   Clear
2:18 AM 41.0 °F - 41.0 °F 100% 30.17 in 1.2 mi Calm Calm - N/A   Clear
2:19 AM 41.0 °F - 41.0 °F 100% 30.17 in 1.0 mi Calm Calm - N/A   Clear
2:20 AM 42.8 °F - 41.0 °F 93% 30.17 in 0.8 mi Calm Calm - N/A   Clear
2:21 AM 42.8 °F 41.1 °F 41.0 °F 93% 30.17 in 0.5 mi NE 3.5 mph - N/A Fog Fog
2:24 AM 42.8 °F - 41.0 °F 93% 30.17 in 0.2 mi Calm Calm - N/A Fog Fog
2:26 AM 42.8 °F 41.1 °F 41.0 °F 93% 30.17 in 0.2 mi NE 3.5 mph - N/A Fog Fog
2:27 AM 42.8 °F - 41.0 °F 93% 30.17 in 0.2 mi Calm Calm - N/A Fog Fog
2:32 AM 42.8 °F - 42.8 °F 100% 30.17 in 0.2 mi Calm Calm - N/A Fog Fog
2:34 AM 42.8 °F 41.1 °F 42.8 °F 100% 30.17 in 0.2 mi NE 3.5 mph - N/A Fog Fog
2:38 AM 41.0 °F 39.0 °F 41.0 °F 100% 30.17 in 0.5 mi NNE 3.5 mph - N/A Fog Fog
2:47 AM 41.0 °F 39.0 °F 41.0 °F 100% 30.17 in 0.2 mi NE 3.5 mph - N/A Fog Fog
2:51 AM 41.0 °F 39.0 °F 41.0 °F 100% 30.17 in 0.2 mi NE 3.5 mph - N/A Fog Fog
2:52 AM 41.0 °F 39.0 °F 41.0 °F 100% 30.16 in 0.2 mi NE 3.5 mph - N/A Fog Fog
2:53 AM 41.0 °F 39.0 °F 39.2 °F 93% 30.16 in 0.2 mi NE 3.5 mph - N/A Fog Fog
2:55 AM 40.5 °F 38.4 °F 39.9 °F 98% 30.16 in 0.2 mi NE 3.5 mph - N/A Fog Fog
2:58 AM 41.0 °F - 39.2 °F 93% 30.16 in 0.8 mi Calm Calm - N/A   Clear
2:59 AM 41.0 °F - 41.0 °F 100% 30.16 in 1.0 mi Calm Calm - N/A   Clear
3:00 AM 41.0 °F - 41.0 °F 100% 30.16 in 1.2 mi Calm Calm - N/A   Clear
3:01 AM 41.0 °F - 41.0 °F 100% 30.16 in 1.8 mi Calm Calm - N/A   Clear
3:02 AM 41.0 °F - 41.0 °F 100% 30.16 in 2.5 mi Calm Calm - N/A   Clear
3:05 AM 41.0 °F - 39.2 °F 93% 30.16 in 2.0 mi Calm Calm - N/A   Clear
3:06 AM 39.2 °F - 39.2 °F 100% 30.16 in 1.8 mi Calm Calm - N/A   Clear
3:08 AM 39.2 °F - 39.2 °F 100% 30.16 in 1.5 mi Calm Calm - N/A   Clear
3:10 AM 39.2 °F - 39.2 °F 100% 30.16 in 1.2 mi Calm Calm - N/A   Clear
3:11 AM 39.2 °F - 39.2 °F 100% 30.16 in 1.0 mi Calm Calm - N/A   Clear
3:12 AM 39.2 °F - 39.2 °F 100% 30.16 in 0.8 mi Calm Calm - N/A   Clear
3:14 AM 41.0 °F - 39.2 °F 93% 30.16 in 0.8 mi Calm Calm - N/A   Clear
3:24 AM 39.2 °F - 39.2 °F 100% 30.16 in 0.5 mi Calm Calm - N/A Fog Fog
3:25 AM 39.2 °F - 39.2 °F 100% 30.16 in 0.5 mi Calm Calm - N/A Fog Fog
3:28 AM 39.2 °F - 39.2 °F 100% 30.16 in 0.2 mi Calm Calm - N/A Fog Fog
3:31 AM 39.2 °F - 39.2 °F 100% 30.16 in 0.2 mi Calm Calm - N/A Fog Fog
3:32 AM 39.2 °F - 39.2 °F 100% 30.16 in 0.2 mi Calm Calm - N/A Fog Fog
3:41 AM 39.2 °F 37.0 °F 39.2 °F 100% 30.16 in 0.2 mi NNE 3.5 mph - N/A Fog Fog
3:42 AM 39.2 °F 37.0 °F 39.2 °F 100% 30.16 in 0.2 mi NNE 3.5 mph - N/A Fog Fog
3:43 AM 41.0 °F 39.0 °F 39.2 °F 93% 30.16 in 0.2 mi NNE 3.5 mph - N/A Fog Fog
3:44 AM 39.2 °F 37.0 °F 39.2 °F 100% 30.16 in 0.5 mi NNE 3.5 mph - N/A Fog Fog
3:55 AM 39.0 °F 36.8 °F 38.5 °F 98% 30.16 in 0.5 mi NNE 3.5 mph - N/A Fog Fog
3:56 AM 39.2 °F 37.0 °F 39.2 °F 100% 30.16 in 0.2 mi NE 3.5 mph - N/A Fog Fog
3:57 AM 39.2 °F 37.0 °F 39.2 °F 100% 30.16 in 0.2 mi NE 3.5 mph - N/A Fog Fog
3:58 AM 39.2 °F 37.0 °F 39.2 °F 100% 30.16 in 0.2 mi NE 3.5 mph - N/A Fog Fog
4:05 AM 41.0 °F 39.0 °F 39.2 °F 93% 30.16 in 0.2 mi NE 3.5 mph - N/A Fog Fog
4:07 AM 41.0 °F 39.0 °F 39.2 °F 93% 30.16 in 0.5 mi NE 3.5 mph - N/A Fog Fog
4:09 AM 41.0 °F 39.0 °F 41.0 °F 100% 30.16 in 0.5 mi NE 3.5 mph - N/A Fog Fog
4:11 AM 41.0 °F - 39.2 °F 93% 30.16 in 0.8 mi Calm Calm - N/A   Clear
4:19 AM 41.0 °F 39.0 °F 39.2 °F 93% 30.16 in 0.5 mi NNE 3.5 mph - N/A Fog Fog
4:20 AM 41.0 °F 39.0 °F 39.2 °F 93% 30.16 in 0.5 mi NNE 3.5 mph - N/A Fog Fog
4:25 AM 39.2 °F 37.0 °F 39.2 °F 100% 30.16 in 0.5 mi NNE 3.5 mph - N/A Fog Fog
4:31 AM 39.2 °F 37.0 °F 37.4 °F 93% 30.17 in 0.5 mi NE 3.5 mph - N/A Fog Fog
4:32 AM 39.2 °F 37.0 °F 37.4 °F 93% 30.17 in 0.5 mi NNE 3.5 mph - N/A Fog Fog
4:33 AM 39.2 °F 37.0 °F 37.4 °F 93% 30.17 in 0.5 mi NNE 3.5 mph - N/A Fog Fog
4:36 AM 39.2 °F 37.0 °F 37.4 °F 93% 30.17 in 0.8 mi NNE 3.5 mph - N/A   Clear
4:38 AM 39.2 °F 37.0 °F 37.4 °F 93% 30.17 in 1.0 mi NNE 3.5 mph - N/A   Clear
4:39 AM 39.2 °F - 37.4 °F 93% 30.17 in 1.5 mi Calm Calm - N/A   Clear
4:40 AM 39.2 °F - 39.2 °F 100% 30.17 in 2.0 mi Calm Calm - N/A   Clear
4:42 AM 39.2 °F - 39.2 °F 100% 30.17 in 2.5 mi Calm Calm - N/A   Clear
4:45 AM 39.2 °F 37.0 °F 39.2 °F 100% 30.17 in 3.0 mi NNE 3.5 mph - N/A   Clear
4:51 AM 39.2 °F - 39.2 °F 100% 30.17 in 2.5 mi Calm Calm - N/A   Clear
4:52 AM 39.2 °F - 39.2 °F 100% 30.17 in 2.0 mi Calm Calm - N/A   Clear
4:53 AM 39.2 °F - 39.2 °F 100% 30.17 in 1.8 mi Calm Calm - N/A   Clear
4:55 AM 39.0 °F - 38.5 °F 98% 30.17 in 1.5 mi Calm Calm - N/A   Clear
5:00 AM 39.2 °F - 39.2 °F 100% 30.17 in 1.8 mi Calm Calm - N/A   Clear
5:01 AM 39.2 °F - 39.2 °F 100% 30.17 in 2.0 mi Calm Calm - N/A   Clear
5:02 AM 39.2 °F - 39.2 °F 100% 30.17 in 2.5 mi Calm Calm - N/A   Clear
5:03 AM 39.2 °F - 39.2 °F 100% 30.17 in 3.0 mi Calm Calm - N/A   Clear
5:07 AM 39.2 °F - 39.2 °F 100% 30.17 in 2.5 mi Calm Calm - N/A   Clear
5:09 AM 39.2 °F - 39.2 °F 100% 30.17 in 2.0 mi Calm Calm - N/A   Clear
5:11 AM 39.2 °F - 39.2 °F 100% 30.17 in 1.8 mi Calm Calm - N/A   Clear
5:12 AM 39.2 °F - 39.2 °F 100% 30.17 in 1.2 mi Calm Calm - N/A   Clear
5:13 AM 39.2 °F - 39.2 °F 100% 30.17 in 1.0 mi Calm Calm - N/A   Clear
5:15 AM 39.2 °F - 39.2 °F 100% 30.17 in 0.8 mi Calm Calm - N/A   Clear
5:16 AM 39.2 °F - 39.2 °F 100% 30.17 in 0.8 mi Calm Calm - N/A   Clear
5:17 AM 39.2 °F - 39.2 °F 100% 30.17 in 0.5 mi Calm Calm - N/A Fog Fog
5:19 AM 39.2 °F - 39.2 °F 100% 30.17 in 0.5 mi Calm Calm - N/A Fog Fog
5:20 AM 39.2 °F - 39.2 °F 100% 30.17 in 0.5 mi Calm Calm - N/A Fog Fog
5:21 AM 39.2 °F - 37.4 °F 93% 30.17 in 0.5 mi Calm Calm - N/A Fog Fog
5:25 AM 37.4 °F 34.9 °F 37.4 °F 100% 30.17 in 0.5 mi NE 3.5 mph - N/A Fog Fog
5:26 AM 37.4 °F 34.9 °F 37.4 °F 100% 30.17 in 0.5 mi NE 3.5 mph - N/A Fog Fog
5:28 AM 37.4 °F - 37.4 °F 100% 30.17 in 0.8 mi Calm Calm - N/A   Clear
5:30 AM 37.4 °F - 37.4 °F 100% 30.17 in 1.0 mi Calm Calm - N/A   Clear
5:32 AM 37.4 °F - 37.4 °F 100% 30.17 in 1.2 mi Calm Calm - N/A   Clear
5:33 AM 37.4 °F - 37.4 °F 100% 30.17 in 1.8 mi Calm Calm - N/A   Clear
5:34 AM 37.4 °F - 37.4 °F 100% 30.17 in 2.0 mi Calm Calm - N/A   Clear
5:35 AM 37.4 °F - 37.4 °F 100% 30.17 in 2.5 mi Calm Calm - N/A   Clear
5:37 AM 37.4 °F - 37.4 °F 100% 30.17 in 2.0 mi Calm Calm - N/A   Clear
5:38 AM 39.2 °F - 37.4 °F 93% 30.17 in 1.5 mi Calm Calm - N/A   Clear
5:39 AM 39.2 °F - 37.4 °F 93% 30.18 in 1.0 mi Calm Calm - N/A   Clear
5:40 AM 39.2 °F - 37.4 °F 93% 30.18 in 0.8 mi Calm Calm - N/A   Clear
5:44 AM 39.2 °F - 39.2 °F 100% 30.18 in 1.0 mi Calm Calm - N/A   Clear
5:48 AM 39.2 °F - 39.2 °F 100% 30.18 in 1.2 mi Calm Calm - N/A   Clear
5:49 AM 39.2 °F - 39.2 °F 100% 30.18 in 2.5 mi Calm Calm - N/A   Clear
5:50 AM 39.2 °F - 39.2 °F 100% 30.18 in 4.0 mi Calm Calm - N/A   Clear
5:55 AM 39.2 °F 37.0 °F 38.7 °F 98% 30.18 in 3.0 mi NNE 3.5 mph - N/A   Clear
5:57 AM 37.4 °F 34.9 °F 37.4 °F 100% 30.18 in 1.5 mi NNE 3.5 mph - N/A   Clear
5:58 AM 37.4 °F 34.9 °F 37.4 °F 100% 30.18 in 1.0 mi NNE 3.5 mph - N/A   Mist
5:59 AM 37.4 °F 34.9 °F 37.4 °F 100% 30.18 in 0.8 mi NNE 3.5 mph - N/A   Mist
6:01 AM 37.4 °F - 37.4 °F 100% 30.18 in 0.5 mi Calm Calm - N/A Fog Fog
6:08 AM 37.4 °F - 37.4 °F 100% 30.18 in 0.8 mi Calm Calm - N/A   Mist
6:11 AM 37.4 °F - 37.4 °F 100% 30.18 in 0.5 mi Calm Calm - N/A Fog Fog
6:16 AM 37.4 °F 34.9 °F 37.4 °F 100% 30.18 in 0.5 mi NE 3.5 mph - N/A Fog Fog
6:28 AM 37.4 °F - 37.4 °F 100% 30.18 in 0.2 mi Calm Calm - N/A Fog Fog
6:33 AM 37.4 °F - 37.4 °F 100% 30.18 in 0.2 mi Calm Calm - N/A Fog Fog
6:34 AM 37.4 °F - 37.4 °F 100% 30.18 in 0.2 mi Calm Calm - N/A Fog Fog
6:36 AM 37.4 °F - 37.4 °F 100% 30.18 in 0.2 mi Calm Calm - N/A Fog Fog
6:38 AM 37.4 °F - 37.4 °F 100% 30.18 in 0.2 mi Calm Calm - N/A Fog Fog
6:55 AM 36.7 °F 34.1 °F 36.1 °F 98% 30.18 in 0.2 mi NE 3.5 mph - N/A Fog Fog
6:58 AM 37.4 °F 34.9 °F 37.4 °F 100% 30.19 in 0.2 mi NE 3.5 mph - N/A Fog Fog
7:19 AM 37.4 °F - 37.4 °F 100% 30.19 in 0.2 mi Calm Calm - N/A Fog Fog
7:31 AM 37.4 °F - 37.4 °F 100% 30.19 in 0.2 mi Calm Calm - N/A Fog Fog
7:32 AM 37.4 °F - 37.4 °F 100% 30.19 in 0.2 mi Calm Calm - N/A Fog Fog
7:33 AM 37.4 °F - 37.4 °F 100% 30.19 in 0.2 mi Calm Calm - N/A Fog Fog
7:34 AM 37.4 °F - 37.4 °F 100% 30.19 in 0.2 mi Calm Calm - N/A Fog Fog
7:35 AM 37.4 °F - 37.4 °F 100% 30.19 in 0.2 mi Calm Calm - N/A Fog Fog
7:36 AM 39.2 °F - 37.4 °F 93% 30.19 in 0.2 mi Calm Calm - N/A Fog Fog
7:38 AM 39.2 °F - 37.4 °F 93% 30.19 in 0.5 mi Calm Calm - N/A Fog Fog
7:40 AM 39.2 °F - 37.4 °F 93% 30.19 in 0.8 mi Calm Calm - N/A   Clear
7:42 AM 39.2 °F - 37.4 °F 93% 30.19 in 1.0 mi Calm Calm - N/A   Clear
7:46 AM 37.4 °F - 37.4 °F 100% 30.19 in 0.8 mi Calm Calm - N/A   Clear
7:47 AM 37.4 °F - 37.4 °F 100% 30.19 in 0.5 mi Calm Calm - N/A Fog Fog
7:55 AM 38.5 °F - 37.9 °F 98% 30.19 in 0.5 mi Calm Calm - N/A Fog Fog
7:59 AM 39.2 °F - 39.2 °F 100% 30.20 in 0.2 mi Calm Calm - N/A Fog Fog
8:02 AM 39.2 °F - 39.2 °F 100% 30.20 in 0.2 mi Calm Calm - N/A Fog Fog
8:03 AM 39.2 °F - 39.2 °F 100% 30.20 in 0.2 mi Calm Calm - N/A Fog Fog
8:04 AM 39.2 °F - 39.2 °F 100% 30.20 in 0.2 mi Calm Calm - N/A Fog Fog
8:05 AM 39.2 °F - 39.2 °F 100% 30.20 in 0.2 mi Calm Calm - N/A Fog Fog
8:09 AM 41.0 °F - 39.2 °F 93% 30.20 in 0.5 mi Calm Calm - N/A Fog Fog
8:11 AM 41.0 °F - 39.2 °F 93% 30.20 in 0.8 mi Calm Calm - N/A   Clear
8:12 AM 41.0 °F - 41.0 °F 100% 30.20 in 1.0 mi Calm Calm - N/A   Clear
8:13 AM 41.0 °F - 41.0 °F 100% 30.20 in 1.5 mi Calm Calm - N/A   Clear
8:14 AM 41.0 °F - 41.0 °F 100% 30.20 in 1.8 mi Calm Calm - N/A   Clear
8:17 AM 41.0 °F - 41.0 °F 100% 30.20 in 1.5 mi Calm Calm - N/A   Clear
8:19 AM 41.0 °F - 41.0 °F 100% 30.20 in 1.2 mi Calm Calm - N/A   Clear
8:20 AM 41.0 °F - 41.0 °F 100% 30.20 in 0.8 mi Calm Calm - N/A   Clear
8:22 AM 41.0 °F - 41.0 °F 100% 30.20 in 0.5 mi Calm Calm - N/A Fog Fog
8:25 AM 41.0 °F - 41.0 °F 100% 30.20 in 0.2 mi Calm Calm - N/A Fog Fog
8:26 AM 41.0 °F - 41.0 °F 100% 30.21 in 0.2 mi Calm Calm - N/A Fog Fog
8:27 AM 42.8 °F - 41.0 °F 93% 30.21 in 0.2 mi Calm Calm - N/A Fog Fog
8:28 AM 42.8 °F - 41.0 °F 93% 30.21 in 0.2 mi Calm Calm - N/A Fog Fog
8:29 AM 42.8 °F - 41.0 °F 93% 30.21 in 0.2 mi Calm Calm - N/A Fog Fog
8:34 AM 42.8 °F 41.1 °F 42.8 °F 100% 30.21 in 0.2 mi NNE 3.5 mph - N/A Fog Fog
8:40 AM 42.8 °F 41.1 °F 42.8 °F 100% 30.21 in 0.2 mi NE 3.5 mph - N/A Fog Fog
8:41 AM 42.8 °F 41.1 °F 42.8 °F 100% 30.21 in 0.2 mi NE 3.5 mph - N/A Fog Fog
8:42 AM 44.6 °F 43.1 °F 42.8 °F 93% 30.21 in 0.2 mi NE 3.5 mph - N/A Fog Fog
8:43 AM 44.6 °F 43.1 °F 42.8 °F 93% 30.21 in 0.2 mi ENE 3.5 mph - N/A Fog Fog
8:44 AM 44.6 °F 43.1 °F 42.8 °F 93% 30.21 in 0.2 mi ENE 3.5 mph - N/A Fog Fog
8:45 AM 44.6 °F 43.1 °F 42.8 °F 93% 30.21 in 0.2 mi NE 3.5 mph - N/A Fog Fog
8:47 AM 44.6 °F 43.1 °F 44.6 °F 100% 30.21 in 0.5 mi NE 3.5 mph - N/A Fog Fog
8:49 AM 44.6 °F 43.1 °F 44.6 °F 100% 30.21 in 0.8 mi ENE 3.5 mph - N/A   Mist
8:51 AM 44.6 °F 43.1 °F 44.6 °F 100% 30.21 in 1.0 mi ENE 3.5 mph - N/A   Mist
8:55 AM 45.1 °F - 44.6 °F 98% 30.21 in 1.2 mi Calm Calm - N/A   Scattered Clouds
8:57 AM 46.4 °F 45.2 °F 44.6 °F 93% 30.21 in 1.5 mi ENE 3.5 mph - N/A   Scattered Clouds
8:59 AM 46.4 °F 45.2 °F 44.6 °F 93% 30.21 in 1.8 mi ENE 3.5 mph - N/A   Scattered Clouds
9:00 AM 46.4 °F 45.2 °F 46.4 °F 100% 30.21 in 2.0 mi ENE 3.5 mph - N/A   Partly Cloudy
9:01 AM 46.4 °F 45.2 °F 46.4 °F 100% 30.21 in 3.0 mi East 3.5 mph - N/A   Partly Cloudy
9:55 AM 52.2 °F - 51.6 °F 98% 30.21 in 9.0 mi Calm Calm - N/A   Clear
10:55 AM 58.8 °F - 49.3 °F 71% 30.21 in 10.0 mi Calm Calm - N/A   Clear
11:55 AM 64.2 °F - 50.0 °F 60% 30.19 in 10.0 mi Calm Calm - N/A   Clear
12:55 PM 69.8 °F - 50.0 °F 49% 30.19 in 10.0 mi Calm Calm - N/A   Clear
1:55 PM 75.7 °F - 51.3 °F 42% 30.16 in 10.0 mi Variable 4.6 mph - N/A   Clear
2:55 PM 77.0 °F - 48.2 °F 36% 30.15 in 10.0 mi Variable 3.5 mph - N/A   Partly Cloudy
3:55 PM 78.8 °F - 45.1 °F 30% 30.14 in 10.0 mi SW 5.8 mph - N/A   Clear
4:55 PM 78.4 °F - 44.1 °F 29% 30.14 in 10.0 mi West 4.6 mph - N/A   Clear
5:55 PM 76.6 °F - 45.1 °F 33% 30.14 in 10.0 mi SW 4.6 mph - N/A   Clear
6:55 PM 70.7 °F - 44.4 °F 39% 30.15 in 10.0 mi South 4.6 mph - N/A   Clear
7:55 PM 68.4 °F - 53.4 °F 59% 30.17 in 10.0 mi South 10.4 mph - N/A   Clear
8:55 PM 65.1 °F - 54.1 °F 68% 30.20 in 10.0 mi Calm Calm - N/A   Clear
9:55 PM 64.2 °F - 54.1 °F 70% 30.22 in 10.0 mi Variable 3.5 mph - N/A   Clear
10:55 PM 62.2 °F - 54.0 °F 74% 30.23 in 10.0 mi SE 3.5 mph - N/A   Clear
11:55 PM 60.1 °F - 53.4 °F 79% 30.24 in 10.0 mi Calm Calm - N/A   Clear